Temp
-14 -14 -13 -13 -13 -14 -15 -16 -15 -15 -15 -16 -16 -16 -15 -15 -16 -15 -15 -15 -16 -15 -15 -15 -15 -13 -13 -13 -12 -12 -13 -13 -13 -12 -12 -12 -12 -12
-15 -15 -15 -15 -15 -15 -16 -16 -17 -16 -16 -16 -16 -16 -16 -16 -16 -16 -16 -16 -16 -16 -15 -14 -14 -14 -14 -13 -13 -13 -13 -13 -13 -13 -12 -12 -12 -12
-16 -16 -17 -17 -17 -17 -17 -17 -18 -17 -16 -17 -17 -17 -17 -16 -16 -16 -16 -16 -16 -16 -15 -15 -14 -14 -13 -13 -13 -13 -13 -13 -13 -13 -13 -12 -12 -12
-18 -18 -18 -18 -18 -18 -18 -18 -18 -18 -18 -17 -18 -18 -18 -17 -17 -16 -16 -16 -16 -16 -15 -15 -15 -15 -14 -13 -14 -13 -13 -13 -13 -13 -13 -13 -12 -12
-19 -19 -19 -19 -19 -19 -19 -19 -20 -20 -19 -18 -18 -18 -18 -18 -18 -18 -17 -16 -16 -16 -16 -16 -15 -15 -15 -14 -14 -14 -14 -14 -13 -13 -13 -13 -13 -12
-20 -20 -20 -20 -19 -20 -20 -20 -20 -20 -20 -20 -19 -19 -19 -19 -18 -18 -18 -18 -17 -16 -16 -16 -16 -15 -15 -15 -15 -14 -14 -14 -14 -14 -14 -13 -13 -13
-21 -21 -21 -21 -21 -21 -20 -20 -20 -20 -20 -20 -20 -19 -19 -19 -19 -19 -18 -18 -18 -18 -17 -17 -16 -16 -16 -15 -15 -15 -15 -15 -14 -14 -14 -14 -13 -13
-22 -22 -22 -22 -22 -21 -21 -21 -21 -21 -20 -20 -20 -20 -20 -20 -19 -19 -19 -18 -18 -18 -18 -18 -17 -17 -17 -16 -16 -15 -15 -15 -15 -15 -15 -14 -14 -13
-24 -24 -23 -23 -23 -23 -22 -22 -21 -21 -21 -21 -20 -20 -20 -20 -20 -19 -19 -18 -18 -18 -18 -18 -18 -18 -17 -17 -17 -16 -16 -16 -16 -16 -15 -15 -14 -14
-26 -26 -25 -25 -25 -24 -24 -23 -23 -22 -22 -21 -21 -20 -20 -20 -20 -20 -20 -18 -18 -18 -18 -18 -18 -18 -17 -18 -17 -17 -17 -17 -16 -16 -16 -16 -15 -15
-29 -28 -28 -27 -27 -26 -26 -25 -24 -24 -23 -23 -22 -21 -20 -20 -20 -20 -20 -19 -18 -18 -18 -18 -18 -18 -17 -17 -17 -17 -17 -16 -16 -16 -16 -16 -16 -15
-32 -32 -32 -30 -30 -29 -27 -26 -26 -26 -25 -24 -23 -22 -21 -20 -21 -20 -20 -19 -19 -19 -19 -18 -18 -18 -18 -17 -17 -17 -17 -17 -17 -16 -16 -16 -16 -15
-33 -34 -34 -34 -33 -32 -31 -29 -27 -27 -26 -25 -24 -23 -22 -21 -21 -21 -20 -20 -19 -19 -19 -18 -18 -18 -17 -17 -17 -17 -17 -17 -17 -17 -17 -16 -16 -16
-34 -34 -34 -34 -33 -33 -32 -32 -30 -28 -27 -26 -25 -24 -23 -22 -21 -21 -21 -20 -20 -19 -19 -18 -18 -18 -17 -17 -17 -17 -16 -16 -17 -16 -16 -16 -16 -16
-34 -34 -34 -34 -33 -33 -33 -32 -31 -30 -28 -27 -26 -25 -24 -23 -22 -22 -21 -21 -20 -20 -19 -19 -18 -18 -17 -17 -17 -17 -17 -16 -16 -16 -16 -16 -16 -16
-34 -34 -34 -33 -33 -33 -33 -33 -32 -31 -29 -28 -27 -26 -24 -23 -23 -22 -22 -21 -21 -20 -20 -19 -18 -18 -18 -17 -17 -17 -17 -17 -17 -16 -16 -16 -16 -16
-34 -33 -33 -32 -33 -33 -33 -33 -32 -31 -30 -29 -28 -27 -25 -24 -23 -23 -22 -22 -21 -21 -20 -20 -19 -18 -18 -18 -18 -17 -17 -17 -17 -17 -17 -16 -16 -16
-33 -32 -32 -32 -33 -33 -33 -33 -32 -31 -31 -30 -29 -27 -26 -25 -24 -23 -23 -22 -22 -21 -21 -20 -20 -19 -18 -18 -18 -18 -17 -17 -17 -17 -17 -17 -16 -16
-33 -32 -32 -33 -33 -33 -33 -32 -32 -31 -31 -31 -30 -29 -27 -26 -25 -24 -23 -23 -22 -22 -21 -21 -20 -20 -19 -19 -19 -18 -18 -17 -17 -17 -16 -16 -16 -16
-34 -34 -33 -33 -33 -33 -32 -32 -31 -31 -31 -31 -31 -30 -29 -27 -26 -25 -24 -23 -23 -23 -22 -21 -21 -21 -20 -20 -19 -19 -18 -18 -17 -17 -17 -17 -16 -16
-34 -34 -34 -33 -32 -32 -32 -32 -31 -31 -31 -32 -32 -31 -30 -29 -27 -26 -25 -24 -24 -23 -23 -22 -22 -21 -21 -20 -20 -20 -19 -18 -18 -18 -17 -17 -17 -17
-33 -33 -33 -32 -32 -32 -32 -32 -31 -32 -32 -32 -32 -32 -31 -30 -28 -27 -26 -25 -24 -24 -23 -23 -22 -21 -21 -21 -21 -20 -20 -20 -19 -18 -18 -18 -18 -18
-32 -32 -32 -32 -32 -32 -32 -32 -32 -33 -32 -32 -32 -31 -31 -30 -29 -29 -28 -26 -25 -25 -24 -23 -22 -22 -22 -21 -21 -21 -21 -20 -20 -20 -20 -19 -19 -18
Height
5644 5641 5639 5638 5637 5637 5638 5640 5642 5647 5649 5648 5648 5647 5650 5655 5658 5663 5666 5669 5675 5681 5685 5689 5693 5697 5702 5706 5710 5714 5717 5721 5724 5728 5730 5734 5737 5740
5624 5623 5622 5619 5619 5618 5618 5620 5623 5628 5636 5633 5633 5635 5635 5639 5643 5647 5652 5656 5660 5666 5670 5674 5680 5685 5690 5694 5696 5700 5704 5709 5711 5714 5718 5720 5724 5727
5601 5602 5601 5600 5601 5600 5599 5601 5604 5607 5614 5622 5620 5620 5622 5622 5625 5631 5634 5639 5645 5651 5656 5660 5663 5670 5674 5679 5682 5686 5690 5694 5699 5701 5705 5707 5712 5714
5578 5578 5580 5578 5579 5579 5580 5581 5582 5586 5592 5599 5606 5607 5608 5610 5611 5614 5618 5623 5628 5633 5638 5644 5650 5654 5657 5662 5667 5671 5675 5680 5683 5687 5691 5694 5695 5700
5555 5554 5555 5557 5559 5558 5557 5561 5564 5566 5568 5576 5585 5589 5593 5595 5596 5599 5601 5606 5612 5616 5621 5627 5633 5638 5642 5647 5651 5656 5661 5665 5669 5672 5676 5680 5683 5686
5530 5530 5530 5532 5533 5536 5537 5538 5541 5546 5550 5554 5562 5569 5574 5576 5579 5583 5586 5590 5595 5601 5605 5611 5616 5622 5627 5632 5637 5641 5644 5649 5654 5658 5661 5666 5669 5672
5503 5503 5504 5505 5508 5511 5515 5517 5519 5523 5529 5534 5541 5548 5554 5559 5562 5565 5570 5573 5577 5584 5589 5592 5600 5605 5607 5613 5619 5624 5629 5634 5637 5642 5646 5651 5655 5657
5477 5476 5476 5478 5480 5484 5489 5494 5498 5501 5506 5512 5519 5527 5534 5540 5544 5547 5552 5558 5563 5566 5573 5577 5581 5586 5591 5597 5600 5607 5612 5618 5623 5627 5630 5634 5640 5644
5448 5449 5449 5451 5453 5456 5462 5469 5474 5479 5484 5490 5497 5505 5512 5519 5525 5531 5533 5540 5547 5552 5557 5564 5564 5570 5574 5580 5584 5588 5593 5600 5605 5610 5615 5620 5624 5629
5421 5422 5423 5425 5427 5429 5436 5443 5449 5456 5462 5468 5475 5483 5489 5496 5504 5511 5516 5522 5530 5536 5541 5549 5550 5555 5559 5565 5569 5574 5578 5582 5586 5592 5597 5603 5609 5615
5398 5398 5399 5401 5403 5406 5412 5418 5424 5432 5437 5444 5451 5460 5468 5475 5481 5489 5499 5505 5511 5519 5525 5531 5538 5540 5545 5551 5556 5560 5564 5568 5571 5577 5581 5588 5593 5599
5378 5379 5380 5380 5382 5384 5386 5393 5401 5408 5413 5421 5429 5438 5447 5455 5461 5469 5478 5487 5494 5502 5509 5514 5521 5525 5532 5537 5542 5547 5551 5555 5558 5563 5569 5574 5579 5586
5360 5363 5364 5363 5362 5365 5367 5370 5377 5383 5391 5399 5408 5417 5426 5433 5442 5450 5458 5467 5476 5484 5492 5497 5505 5512 5517 5524 5527 5533 5539 5543 5547 5552 5557 5562 5568 5573
5344 5346 5347 5348 5348 5349 5351 5351 5353 5360 5369 5378 5386 5397 5406 5414 5422 5430 5438 5448 5456 5466 5475 5482 5489 5496 5502 5509 5515 5518 5525 5530 5535 5540 5545 5550 5555 5561
5325 5327 5328 5330 5332 5334 5334 5333 5334 5339 5347 5356 5367 5377 5386 5394 5402 5412 5422 5431 5438 5448 5458 5466 5472 5480 5487 5494 5501 5506 5510 5516 5522 5527 5532 5537 5542 5548
5308 5308 5309 5311 5315 5316 5317 5317 5317 5320 5327 5337 5348 5356 5365 5375 5385 5395 5404 5413 5422 5432 5440 5449 5456 5464 5472 5480 5486 5492 5497 5503 5509 5514 5519 5523 5528 5533
5290 5289 5292 5295 5297 5298 5299 5300 5301 5304 5310 5318 5328 5338 5347 5356 5367 5377 5387 5396 5406 5415 5424 5431 5440 5448 5457 5465 5472 5478 5483 5490 5495 5500 5505 5511 5516 5521
5275 5276 5279 5280 5281 5283 5284 5285 5287 5290 5295 5303 5311 5322 5332 5340 5350 5360 5370 5380 5389 5399 5408 5415 5424 5433 5441 5450 5458 5464 5470 5476 5481 5486 5492 5497 5503 5508
5263 5264 5266 5267 5268 5269 5270 5271 5275 5277 5282 5290 5298 5307 5316 5326 5335 5345 5354 5364 5373 5382 5393 5401 5409 5417 5425 5433 5441 5449 5456 5462 5467 5473 5478 5483 5488 5493
5252 5252 5253 5254 5255 5256 5257 5260 5263 5267 5272 5279 5287 5295 5303 5311 5321 5331 5340 5350 5359 5368 5378 5387 5395 5403 5410 5418 5426 5434 5441 5447 5453 5459 5464 5469 5474 5479
5243 5242 5243 5243 5244 5246 5248 5251 5254 5259 5264 5271 5279 5286 5293 5301 5310 5319 5328 5338 5346 5355 5365 5373 5381 5389 5397 5404 5411 5417 5424 5431 5438 5444 5449 5454 5459 5464
5232 5232 5233 5234 5236 5238 5240 5243 5247 5252 5259 5266 5273 5280 5286 5293 5301 5309 5317 5326 5335 5343 5351 5360 5368 5376 5384 5390 5396 5403 5409 5415 5422 5428 5434 5440 5445 5450
5225 5225 5226 5228 5230 5232 5235 5239 5245 5250 5257 5264 5270 5276 5281 5288 5294 5301 5308 5315 5324 5332 5339 5347 5355 5362 5369 5376 5383 5389 5395 5401 5406 5412 5418 5423 5429 5434
Wind_Speed
66 65 66 66 67 67 64 59 58 52 47 47 53 57 53 52 54 56 56 55 52 52 52 52 55 58 52 49 49 49 49 48 47 47 46 47 46 45
69 70 70 69 69 68 66 64 61 57 53 51 49 54 59 58 57 55 56 56 57 56 54 52 52 52 56 55 51 49 49 50 49 48 49 48 47 46
71 73 72 72 69 69 70 67 64 63 60 52 54 52 54 59 60 60 58 58 58 58 58 57 55 55 53 52 50 49 49 50 51 49 50 48 46 43
73 72 73 72 71 70 68 68 68 65 62 59 54 54 54 55 59 62 63 62 60 60 61 59 58 58 57 56 54 51 51 51 49 48 48 47 46 46
74 74 74 74 72 72 70 67 66 64 64 62 58 54 55 56 56 56 60 63 62 61 62 62 62 61 60 60 58 58 56 55 54 53 52 50 48 47
77 76 75 74 72 73 71 69 68 66 63 63 61 58 56 57 58 58 56 57 61 62 63 64 64 63 62 62 61 61 59 58 58 56 53 53 50 47
80 79 78 78 76 74 72 70 68 67 64 63 63 60 59 58 59 59 58 56 54 53 58 62 64 64 64 64 65 63 61 59 57 56 53 50 48 47
83 83 81 81 79 76 74 73 70 68 65 64 62 64 60 59 60 58 60 57 56 54 51 53 58 62 64 65 64 68 66 61 57 55 53 50 48 47
83 84 84 84 83 80 78 74 72 70 66 63 62 62 65 62 60 56 60 60 58 55 52 50 53 52 56 58 60 63 65 65 63 59 57 54 53 52
76 77 79 79 78 78 79 77 74 71 68 64 63 62 63 66 66 60 58 59 58 55 55 52 53 52 52 51 50 50 51 51 52 55 58 60 56 52
60 63 67 69 71 71 71 69 70 69 67 65 64 63 63 64 65 66 63 59 57 57 58 55 55 54 51 48 48 48 47 48 50 50 50 50 52 53
48 50 51 56 58 59 65 65 65 59 63 64 62 62 62 64 63 63 64 65 61 56 56 57 56 57 54 50 48 47 46 42 43 45 45 46 47 48
48 47 47 49 53 54 55 60 60 58 58 60 60 62 62 63 63 62 62 64 66 61 58 57 56 56 55 53 52 49 45 41 42 44 44 44 44 45
50 50 50 51 52 50 48 52 58 56 57 58 60 59 61 62 63 62 61 62 64 66 61 59 56 55 55 54 52 52 48 44 42 42 46 47 46 45
57 56 55 54 52 48 46 50 54 56 55 57 57 59 61 63 64 61 61 60 61 64 65 62 59 55 54 52 51 52 51 48 44 43 44 46 48 47
62 61 58 52 45 43 43 43 48 51 52 52 55 59 62 63 64 63 61 60 59 60 63 65 63 59 55 53 51 51 52 50 49 46 44 44 45 48
51 53 49 45 42 41 39 40 44 47 48 47 51 56 61 63 62 63 62 60 59 58 59 63 65 63 59 56 53 51 50 50 51 50 48 45 45 45
35 34 33 33 34 35 35 38 41 42 44 43 47 51 56 61 62 62 62 61 60 58 57 58 62 64 63 60 57 55 52 51 50 50 49 49 46 45
32 29 27 28 29 31 33 37 37 38 40 40 45 48 51 56 60 60 60 60 61 60 58 56 56 58 62 62 60 59 56 55 53 51 49 49 48 48
30 28 25 25 26 28 32 33 34 33 34 39 42 45 46 50 55 57 57 58 59 58 56 56 55 55 55 57 59 59 59 58 56 55 53 52 51 52
28 27 25 24 24 25 27 28 29 29 32 37 39 40 40 43 46 50 52 54 54 55 54 53 54 55 53 53 52 54 56 57 58 57 56 55 54 54
22 19 20 20 21 21 22 23 23 25 29 32 31 31 34 36 37 42 43 46 50 50 50 50 52 52 52 52 51 51 51 53 55 56 56 56 55 53
14 13 16 17 15 15 16 18 22 25 24 20 22 25 26 27 29 32 33 37 42 44 47 48 48 48 49 50 50 50 49 49 50 51 52 54 54 54
Wind_Direction
276 274 273 273 272 273 273 272 270 263 259 255 254 254 253 251 249 247 243 236 238 244 246 247 248 242 249 249 247 246 246 244 243 244 247 251 255 258
272 271 270 269 269 268 267 268 266 264 257 256 254 252 252 249 250 248 245 247 242 240 242 241 241 241 243 245 244 244 244 246 246 247 250 252 257 261
271 270 270 270 268 268 269 265 263 262 259 249 251 251 253 252 249 250 249 247 246 244 241 239 239 242 241 243 244 244 245 246 247 249 252 253 258 260
270 270 268 266 267 266 266 266 265 262 259 254 249 249 248 250 250 248 247 247 247 246 247 244 242 240 240 242 243 243 245 246 247 249 251 253 253 257
269 268 268 267 266 265 265 264 263 260 260 256 249 248 247 246 249 248 247 246 245 246 247 247 246 245 244 244 245 245 246 247 249 249 251 253 255 257
268 266 265 264 263 263 263 263 262 260 257 255 252 247 247 246 244 246 246 246 245 244 246 247 247 249 248 247 247 246 247 249 250 251 252 254 255 256
267 266 265 264 263 261 260 260 261 260 257 254 251 249 245 245 245 243 245 246 246 245 246 247 247 247 248 248 252 251 250 250 251 252 252 252 251 249
265 265 265 264 263 262 261 259 258 258 256 254 250 247 246 244 245 245 241 242 244 245 244 248 250 248 248 249 246 248 250 250 248 247 246 244 247 247
265 264 264 264 264 263 260 258 257 256 254 252 250 247 244 243 242 241 245 239 239 241 243 242 248 248 250 249 249 250 249 247 244 243 243 244 243 244
266 266 264 264 265 263 262 260 257 255 254 252 248 245 245 243 242 240 241 244 238 238 240 239 243 246 247 246 248 249 249 249 248 245 244 243 244 245
266 265 265 265 265 265 262 261 259 256 253 250 248 244 242 244 242 240 239 241 242 240 239 238 238 243 245 245 246 247 247 248 244 242 243 242 241 240
267 266 265 264 263 264 262 257 255 252 252 250 246 243 240 241 241 240 237 236 239 237 239 240 237 238 240 244 244 243 243 245 237 237 235 237 238 238
265 264 264 265 265 265 264 261 254 250 246 245 244 242 240 239 240 238 237 234 234 235 233 237 237 236 237 239 242 241 240 242 237 236 236 238 238 238
268 267 266 266 267 267 266 263 259 251 245 240 238 237 237 238 238 237 236 235 232 232 233 234 236 235 236 236 237 241 238 239 240 240 238 238 238 238
268 269 269 270 270 271 269 264 260 255 246 239 234 232 233 234 236 236 235 235 234 231 232 234 234 235 234 235 235 235 240 239 238 241 242 241 239 238
271 272 272 273 273 271 267 263 256 254 249 241 234 229 228 230 232 233 234 233 233 233 231 232 234 234 235 235 234 234 235 238 241 240 243 241 241 239
269 269 271 272 267 264 260 255 251 250 247 237 232 229 227 227 228 230 232 232 231 232 232 231 232 234 235 235 236 234 235 236 238 241 240 241 240 240
277 273 269 264 261 260 256 252 248 248 243 234 229 227 227 227 226 227 228 230 230 231 231 231 231 232 234 235 236 238 236 237 237 238 240 240 240 240
277 275 269 264 260 256 252 249 247 247 239 231 228 224 224 226 227 226 227 228 230 230 230 230 232 232 233 235 236 237 239 239 239 239 239 240 240 241
283 280 272 263 257 252 248 247 245 244 234 227 228 226 225 225 226 226 226 227 229 231 230 230 230 232 232 234 235 237 237 239 240 242 243 242 242 243
275 273 270 263 256 253 252 248 242 237 225 223 227 226 226 226 225 227 226 226 228 230 231 230 231 232 233 233 235 237 236 237 239 241 243 243 244 245
279 267 260 255 253 251 247 238 234 217 213 220 224 219 225 225 224 225 225 228 228 228 229 231 231 231 233 235 235 236 237 237 237 238 240 242 244 245
275 257 246 249 245 234 227 213 198 201 212 206 212 223 225 218 220 224 224 224 227 227 228 229 231 231 232 233 235 236 237 238 239 239 239 240 241 243